GEFSGL_500_meanwind_042.txt.gz
Wind_Speed
65 65 65 64 63 62 61 60 60 59 59 58 58 57 56 55 54 53 52 51 49 47 45 43 41 39 36 35 33 32 31 28 25 25 26 24 22 21 23 26 28 29 28
71 71 69 69 67 66 65 64 64 64 64 63 63 62 61 59 58 57 55 54 52 50 48 46 44 41 39 37 35 33 32 29 26 25 25 24 22 21 22 24 26 28 28
71 68 65 63 62 61 61 61 62 62 63 65 66 66 65 64 62 60 58 56 54 51 49 47 46 43 40 38 36 34 33 30 27 26 25 24 22 21 22 23 25 27 28
61 58 55 52 50 48 48 49 51 53 56 60 63 65 67 67 66 64 62 59 56 53 50 48 46 44 41 39 37 35 33 30 28 26 24 23 22 21 21 22 24 25 27
48 45 43 41 40 39 39 39 40 41 44 48 52 56 60 63 65 67 66 63 59 55 52 49 46 44 41 39 38 36 34 31 28 26 24 22 21 20 20 20 21 23 24
41 40 40 40 39 38 36 35 34 34 35 37 40 44 48 53 57 60 63 64 63 59 55 51 47 45 42 40 38 35 33 31 28 25 24 22 20 19 18 19 19 21 23
44 44 43 43 41 39 38 36 34 33 32 32 32 34 37 41 45 50 54 59 61 61 59 54 49 46 44 41 38 35 33 30 28 25 23 22 20 19 18 18 19 20 21
47 47 47 46 45 43 41 39 37 35 33 31 30 30 31 33 36 40 44 49 54 58 59 57 53 48 45 42 39 36 33 30 27 25 23 21 20 19 19 18 19 20 20
50 49 48 47 46 45 43 41 39 37 35 33 31 29 29 29 30 32 36 39 45 51 55 56 54 50 46 43 40 36 33 30 26 24 22 21 20 19 18 18 18 17 17
52 51 50 49 47 46 45 43 41 40 38 35 33 31 29 27 27 27 29 32 37 43 49 51 51 50 47 44 40 36 33 29 25 23 21 20 19 18 17 17 18 18 18
50 49 48 48 48 47 46 44 42 40 38 36 33 31 29 27 25 25 25 27 31 37 43 45 47 48 46 44 40 36 32 28 25 22 21 19 19 18 17 17 18 19 19
46 45 44 43 42 42 42 41 40 39 38 36 34 31 29 27 26 24 23 24 26 33 41 43 44 45 45 43 40 36 32 28 25 22 21 20 19 18 19 18 18 18 19
43 41 39 37 36 36 37 37 37 37 36 34 33 31 29 27 26 24 22 23 26 32 41 43 44 43 43 42 39 35 31 27 24 22 21 19 18 18 19 19 18 19 20
36 33 32 30 29 29 30 30 31 32 32 32 31 30 28 26 24 23 22 23 26 32 41 45 46 43 41 40 37 34 30 27 24 22 20 19 18 18 18 18 18 18 19
31 28 25 23 21 21 21 22 23 26 28 27 28 27 26 24 23 22 22 22 27 33 40 47 46 43 41 38 36 32 29 26 24 22 20 19 18 19 20 20 19 19 20
28 24 21 17 14 12 12 15 18 20 22 23 24 24 23 22 21 20 19 19 26 33 40 45 44 41 39 36 33 30 28 26 25 22 21 20 20 20 20 20 21 21 21
25 21 17 12 9 5 5 8 12 16 19 21 21 22 21 20 19 19 18 18 23 33 41 42 43 40 37 34 32 30 28 26 25 23 23 23 22 22 22 22 22 22 21
25 21 16 12 8 3 2 6 9 13 16 19 20 20 19 18 17 17 18 18 24 34 40 41 41 39 37 34 32 31 29 27 25 25 25 24 24 23 23 23 22 22 22
26 22 18 13 9 7 7 8 10 13 16 18 19 19 18 17 16 16 17 20 27 36 39 39 39 38 35 33 32 31 29 28 27 26 26 25 24 24 24 23 22 22 22
26 23 19 16 13 11 11 12 14 16 17 18 19 18 17 17 17 18 19 23 32 38 39 38 38 37 35 33 32 30 29 28 27 27 26 26 25 24 23 22 22 21 21
27 23 20 18 16 14 15 16 17 18 19 19 19 19 19 19 20 22 24 29 35 37 37 37 36 35 33 32 31 30 29 28 28 27 26 25 24 23 22 22 21 21 20
29 26 23 20 18 17 18 18 18 19 20 20 21 21 22 24 25 26 29 32 34 35 36 34 33 33 32 32 30 29 29 28 27 26 25 24 23 22 22 21 20 20 20
30 28 25 24 22 21 21 20 20 20 21 21 22 23 25 27 28 30 32 32 32 33 33 32 32 32 31 31 31 30 29 28 26 25 24 23 22 21 20 20 19 19 19
32 30 28 27 25 24 23 23 23 23 23 23 24 26 29 30 30 31 33 32 31 30 30 30 30 30 30 29 29 28 27 26 25 23 22 21 20 20 19 19 19 19 19
32 31 30 28 27 26 26 25 26 26 27 27 29 30 31 31 31 32 32 31 30 29 29 29 29 29 29 27 26 26 25 24 22 21 20 19 18 17 17 17 18 18 18
30 29 28 28 28 28 27 28 28 29 30 31 32 32 31 31 32 31 31 30 29 28 27 27 27 27 26 25 24 22 21 20 19 18 17 16 16 16 16 16 17 17 18

GEFSGL_500_meanwind_048.txt.gz
Wind_Speed
56 55 54 53 53 52 51 51 53 55 58 61 62 64 64 64 63 62 61 60 59 58 56 55 53 51 49 47 45 42 39 36 33 31 31 29 28 26 25 24 24 23 23
56 55 54 52 50 47 45 44 45 47 50 54 59 63 65 67 67 67 66 66 65 64 62 60 58 56 53 50 48 45 42 39 36 33 32 31 29 27 26 24 24 23 23
56 55 53 50 47 45 43 42 41 40 41 45 49 54 60 65 68 69 70 70 69 68 67 65 62 61 58 55 52 49 45 42 38 35 33 32 30 28 26 25 24 23 23
56 55 53 51 48 46 44 42 41 40 38 38 41 44 49 55 61 67 71 72 72 72 71 69 66 63 60 58 55 52 48 45 41 37 35 33 31 29 27 26 24 23 23
57 56 54 53 51 49 47 44 43 41 40 38 37 38 40 43 47 53 61 66 70 72 73 72 69 66 62 59 56 53 50 47 43 39 36 34 31 29 28 26 25 24 23
57 56 55 54 52 51 49 47 45 44 42 41 39 37 37 38 39 41 45 53 59 65 69 71 70 68 64 61 57 54 51 48 44 41 38 35 32 30 28 26 25 23 23
56 55 54 53 52 50 49 47 46 44 44 42 41 40 38 37 37 37 38 40 45 52 59 64 67 68 65 62 59 55 51 48 45 42 39 36 33 30 28 26 25 23 22
55 53 51 50 48 47 47 46 45 44 43 43 42 41 40 38 37 35 34 34 36 40 46 53 58 61 62 61 59 55 52 48 44 42 39 37 34 31 28 26 25 24 22
53 51 49 48 46 44 44 43 42 42 41 41 42 40 39 38 37 35 33 32 31 32 36 42 48 52 55 58 57 54 51 48 45 42 39 36 34 31 28 26 24 23 22
52 49 47 45 43 41 39 38 38 39 38 38 40 40 39 38 36 34 33 30 30 30 31 34 39 44 48 51 53 53 50 48 45 42 39 36 33 31 28 26 24 23 22
50 47 44 41 39 37 35 33 32 34 35 35 37 37 38 37 36 34 32 30 29 29 29 30 34 38 42 46 48 49 49 47 45 42 39 36 33 30 28 25 23 22 22
48 45 41 38 35 32 30 28 27 28 30 32 33 34 36 37 35 34 31 29 28 27 26 28 30 34 39 43 45 46 47 46 44 42 39 36 32 30 27 25 24 22 22
45 41 38 33 30 27 24 22 22 23 24 27 29 31 33 34 34 32 30 29 28 26 26 26 28 32 38 41 42 43 45 45 43 41 39 36 33 30 28 25 24 23 22
43 38 35 30 26 23 19 16 16 17 19 21 25 28 30 31 31 30 29 28 26 24 24 24 25 29 35 40 42 42 43 43 42 40 37 35 33 30 28 26 25 23 22
41 37 32 28 25 21 16 12 9 9 12 16 20 24 27 28 28 28 27 26 24 23 23 24 24 29 34 39 42 42 42 42 41 39 37 35 33 30 28 26 24 22 22
40 35 31 27 24 20 16 11 6 2 6 11 15 19 22 24 24 25 25 23 22 21 22 22 24 28 36 40 42 42 43 42 40 37 35 34 32 30 28 26 25 23 21
38 33 29 26 24 21 16 12 8 4 4 8 12 16 18 20 21 22 21 21 20 20 20 22 24 30 37 39 41 43 42 41 39 36 34 32 31 29 28 26 25 23 22
37 32 29 26 24 21 17 13 10 8 7 9 12 14 16 17 18 18 18 19 19 18 18 21 25 33 38 39 41 43 42 40 38 35 33 32 30 28 27 26 25 23 22
37 33 30 27 25 22 19 16 13 10 10 11 12 13 14 14 14 15 16 16 16 16 17 22 28 34 38 40 42 41 41 38 35 33 32 31 29 28 26 25 24 22 22
38 34 30 27 26 24 21 19 16 14 13 12 13 13 13 13 13 14 14 15 15 15 18 25 31 36 38 40 41 40 38 36 34 32 31 30 28 27 25 24 23 22 21
38 34 31 28 26 24 23 21 19 16 15 14 13 13 13 13 13 14 15 16 17 19 23 29 33 36 38 39 39 38 36 34 33 31 30 28 27 26 25 24 23 22 21
37 34 31 28 26 24 23 22 21 20 18 17 15 15 15 15 15 16 18 21 24 26 29 31 34 36 37 37 36 35 33 32 30 29 28 26 25 24 23 22 22 21 20
35 33 31 28 26 24 22 22 21 20 19 18 18 18 18 18 20 22 24 26 27 28 29 31 33 34 33 33 33 32 31 30 29 27 26 24 23 23 22 21 21 20 19
33 32 30 28 27 24 22 21 21 21 21 21 21 21 21 22 23 25 27 29 29 29 28 29 30 30 30 29 29 29 28 27 26 25 24 23 22 21 20 20 19 18 17
30 30 29 28 26 26 24 23 22 23 23 23 24 24 25 25 26 28 29 29 29 28 28 28 28 27 26 25 25 25 24 24 23 23 22 21 20 19 18 17 16 16 16
26 27 27 27 26 25 24 24 23 23 23 23 24 24 25 27 28 28 28 28 28 28 27 26 25 25 24 23 23 22 22 21 20 20 19 18 17 16 15 15 14 15 15

GEFSGL_500_meanwind_054.txt.gz
Wind_Speed
43 44 45 46 47 48 49 50 50 51 52 53 54 55 57 59 62 64 66 66 66 65 64 61 58 55 54 52 50 50 49 48 46 45 43 40 37 35 32 29 27 26 24
45 46 46 47 48 49 49 49 50 51 52 53 54 55 55 57 59 61 64 68 70 70 70 69 66 63 59 57 55 54 52 51 50 48 46 44 40 37 34 31 29 27 25
46 47 47 48 50 50 50 50 50 51 51 52 53 54 55 55 56 58 60 63 67 70 72 72 72 70 67 64 60 58 56 54 52 51 49 47 43 40 37 34 31 29 27
47 48 49 50 51 51 51 51 51 51 51 52 53 53 54 54 54 55 57 59 62 65 69 71 73 73 72 69 64 61 59 58 55 53 51 49 46 42 39 36 34 31 29
49 50 51 52 52 52 52 52 51 50 50 50 51 52 53 53 53 52 53 55 57 59 63 67 70 72 73 72 69 66 64 62 59 57 53 51 48 45 42 39 36 33 31
51 52 52 52 52 52 51 51 50 49 48 48 48 49 51 51 51 50 50 51 52 54 56 60 64 68 71 72 72 69 67 63 62 59 56 53 50 47 44 41 38 35 32
52 52 52 51 51 51 49 48 46 44 44 44 44 45 47 48 49 49 49 48 48 49 50 52 56 61 66 69 71 71 69 66 63 61 58 55 52 49 47 43 40 37 34
52 52 51 50 49 48 46 43 41 39 39 39 40 40 42 44 46 48 47 47 46 46 45 45 47 51 56 61 65 68 70 69 65 61 57 55 52 50 48 45 41 37 35
52 52 50 48 46 44 42 38 36 35 34 35 37 38 39 41 43 45 45 44 44 43 41 40 40 42 46 50 56 61 64 66 67 63 60 55 53 50 47 45 43 39 35
51 50 48 47 44 41 38 34 31 30 29 30 31 34 36 38 41 42 43 42 41 40 39 38 37 37 38 40 44 50 55 58 62 62 58 56 53 49 46 44 42 39 36
51 49 47 44 40 37 34 30 26 24 23 24 26 29 31 34 37 38 39 39 39 39 37 36 35 35 34 35 37 41 46 50 55 57 56 53 51 49 46 42 41 39 36
50 47 44 41 37 34 30 26 22 19 17 17 19 22 25 28 32 34 35 36 37 37 36 35 34 33 33 32 33 36 40 44 49 52 52 52 50 47 45 42 39 38 36
48 45 42 38 35 31 28 23 19 16 13 11 13 16 20 24 27 30 32 33 34 34 34 34 32 31 31 31 31 34 37 41 45 48 49 48 47 45 44 42 39 37 35
47 44 40 37 34 30 27 23 19 15 10 8 9 12 15 18 22 25 28 30 31 31 31 31 30 30 29 29 29 32 35 38 42 46 47 46 45 45 43 41 39 37 35
45 42 39 36 33 29 26 23 19 15 10 5 5 9 13 16 20 23 25 26 27 28 28 28 27 28 28 28 28 31 34 38 41 44 46 45 45 44 43 41 39 37 34
42 40 38 35 33 29 25 22 19 15 10 4 1 6 10 14 19 22 23 23 24 25 25 25 26 26 27 27 28 30 35 38 39 42 44 44 44 44 42 40 37 35 34
40 38 37 35 32 29 25 22 19 16 12 8 5 5 9 13 16 18 20 21 21 22 22 23 24 25 25 26 28 31 36 38 39 41 42 44 43 42 40 38 36 34 33
38 36 35 34 31 29 25 22 19 17 14 11 9 8 9 12 14 16 16 17 18 19 20 21 21 22 23 25 29 34 37 39 39 40 41 42 42 40 39 36 35 33 32
36 34 33 32 30 27 25 22 19 17 14 12 11 10 9 11 12 13 14 14 15 17 18 18 18 19 22 25 31 35 37 38 37 40 40 40 40 38 36 34 33 32 31
35 33 32 30 28 26 23 22 19 17 15 13 12 11 10 10 11 11 12 12 13 15 15 16 16 18 21 27 31 33 36 37 38 39 39 37 36 35 34 33 32 31 30
33 32 31 29 27 25 22 20 19 17 16 14 12 11 11 10 10 10 10 11 12 13 15 16 16 18 23 28 31 34 36 36 36 37 36 35 33 32 31 30 29 28 27
31 30 30 28 26 24 22 20 18 17 15 14 13 12 11 11 11 10 11 11 12 14 16 17 19 23 27 30 33 35 35 35 36 37 35 33 32 30 29 27 26 25 25
28 28 28 27 25 23 22 21 20 18 17 15 14 13 13 13 13 13 14 15 17 19 21 24 25 27 30 32 33 34 34 34 33 32 31 30 28 27 26 25 24 23 23
25 26 26 25 24 22 22 21 21 19 18 18 17 17 17 17 17 18 19 19 21 23 25 26 27 29 31 32 32 32 33 32 31 31 29 28 26 24 24 23 22 22 22
22 22 23 23 22 21 21 21 20 20 20 20 20 20 20 20 20 21 22 23 24 25 26 27 28 28 29 29 28 28 28 27 27 27 25 24 23 23 22 22 21 20 20
18 19 20 20 20 19 19 20 20 20 20 20 21 21 21 22 22 23 25 26 26 26 27 28 28 28 27 27 26 25 24 24 24 24 23 22 21 21 20 20 19 19 18

GEFSGL_500_meanwind_060.txt.gz
Wind_Speed
41 40 40 41 42 43 45 46 47 47 48 49 50 51 51 51 51 51 50 51 51 51 52 53 53 53 51 49 47 46 46 44 43 42 40 40 40 40 40 39 37 36 33
41 41 42 43 44 45 46 48 49 49 50 51 51 52 52 52 52 52 52 52 53 53 53 54 55 56 56 55 53 51 49 48 46 44 42 41 42 41 41 41 39 38 36
42 42 43 44 46 47 48 50 50 50 51 51 51 52 52 52 53 53 53 54 54 54 54 54 55 57 58 58 57 56 54 51 49 48 45 43 43 42 42 42 41 39 37
43 43 44 45 47 48 50 51 51 51 50 51 51 50 51 52 53 53 53 54 54 54 54 55 55 57 59 60 60 59 59 56 53 51 49 47 46 44 43 42 42 41 39
43 44 45 46 48 49 50 50 50 50 49 49 49 49 50 51 52 52 53 53 53 54 54 54 55 56 57 58 59 60 60 58 57 56 52 49 48 46 44 43 42 41 40
44 44 46 47 48 48 49 49 49 49 48 48 47 47 47 47 47 48 49 50 50 51 52 53 54 55 56 57 58 59 59 59 58 57 56 54 52 49 46 44 43 42 41
44 45 46 47 48 49 50 49 49 47 47 46 44 43 42 41 42 43 44 45 46 47 48 50 52 53 55 55 56 57 57 58 58 58 57 55 54 52 49 45 44 42 41
45 46 46 47 48 49 49 47 45 44 43 41 39 37 36 35 36 37 39 41 42 44 45 45 47 49 51 52 54 54 55 56 58 58 58 56 55 54 53 49 45 43 41
45 45 46 47 48 48 46 43 42 41 39 36 33 32 30 30 30 31 33 35 37 39 41 42 42 44 46 48 49 50 52 53 55 55 56 57 55 54 52 52 49 44 43
45 45 46 47 47 45 43 41 39 37 34 31 28 26 25 24 24 26 28 31 32 35 37 39 39 39 41 43 44 46 47 48 49 51 52 52 54 54 52 50 49 45 43
45 45 45 46 44 42 41 39 36 34 31 27 25 23 20 19 19 20 23 25 28 32 34 36 37 37 38 38 39 40 41 43 45 46 47 47 50 51 51 50 49 46 43
44 44 45 44 42 40 39 36 34 32 29 26 22 20 17 16 15 16 18 22 25 28 31 33 34 34 35 35 35 35 36 36 38 40 43 44 45 47 47 48 48 47 43
44 43 43 42 40 39 38 35 32 30 27 24 21 18 16 13 12 12 14 19 23 26 28 30 31 31 31 31 31 32 33 33 33 34 36 39 42 44 45 45 47 47 45
43 42 41 40 38 37 36 33 31 29 26 23 19 16 13 10 8 9 11 15 20 24 26 28 28 28 28 28 29 30 29 30 31 32 34 36 39 41 42 42 44 45 44
42 42 40 38 37 36 34 32 31 28 25 22 18 15 11 7 5 6 7 11 17 22 25 26 26 26 25 26 27 28 28 28 28 29 31 33 36 39 40 41 42 43 42
40 40 39 37 36 34 33 31 30 28 25 22 19 15 11 6 2 3 7 10 14 19 21 23 23 23 24 24 25 26 26 26 27 28 29 31 33 37 40 41 42 42 41
39 39 38 36 35 32 31 29 28 26 25 22 19 16 12 7 3 4 7 10 14 16 18 20 21 21 22 23 24 25 25 25 26 27 28 31 33 36 39 40 42 42 41
37 38 37 35 34 31 29 27 26 25 23 21 19 15 11 9 6 6 7 10 13 15 16 18 19 19 20 21 22 23 23 24 24 26 28 31 33 35 38 40 42 42 40
35 36 36 34 32 30 28 25 24 22 21 20 18 15 11 8 6 6 7 9 12 13 14 15 16 17 18 19 20 22 23 23 24 26 28 31 33 35 38 40 41 40 39
34 34 34 33 31 29 27 25 23 21 19 18 16 14 12 9 7 5 5 7 9 10 11 13 15 16 18 18 20 21 22 23 23 25 28 31 33 34 37 39 38 37 37
32 32 32 31 29 28 27 25 23 21 18 16 14 13 11 9 7 5 3 4 7 9 10 11 13 14 16 17 18 20 21 22 24 25 29 31 33 34 37 38 37 36 35
29 29 30 29 28 27 26 24 23 21 18 16 13 11 10 10 8 6 3 2 3 6 8 9 10 12 13 14 15 17 19 21 24 28 31 32 33 34 35 36 35 35 33
27 27 27 26 26 25 25 24 22 21 19 16 14 12 11 10 10 8 6 5 5 5 6 8 8 10 11 13 14 16 20 24 26 30 31 32 33 34 34 33 33 33 31
25 25 25 24 24 23 23 22 21 20 19 17 15 14 13 11 11 11 10 8 8 8 8 9 10 12 14 14 16 19 22 26 28 29 29 31 32 32 31 31 31 30 28
23 22 22 22 21 21 20 20 19 18 17 17 17 16 15 14 14 13 13 13 14 14 14 15 16 17 17 17 19 22 24 26 26 26 27 27 28 29 29 29 28 27 26
20 19 19 18 18 18 18 18 17 17 16 16 16 16 16 16 16 16 16 16 17 18 18 19 19 20 20 20 22 22 23 25 25 25 24 24 25 26 26 26 25 24 24

GEFSGL_500_meanwind_066.txt.gz
Wind_Speed
41 41 40 40 41 41 41 41 41 42 42 43 43 45 46 46 47 46 46 46 45 45 44 44 44 45 45 45 45 45 45 43 41 39 38 40 40 42 42 42 41 40 40
41 41 41 41 42 42 42 42 42 42 43 43 44 45 46 47 48 48 48 48 48 48 48 47 46 47 47 47 48 48 48 48 45 42 41 41 41 42 44 43 43 42 42
41 42 42 42 42 42 42 42 42 42 43 44 44 45 46 46 47 48 49 49 49 49 50 49 49 49 49 49 50 50 51 51 50 47 45 45 44 44 45 44 43 43 44
42 42 42 42 42 42 41 41 41 42 43 43 44 45 46 47 48 48 49 49 49 50 50 51 51 51 51 52 52 53 53 53 54 52 49 48 47 47 47 46 45 44 44
43 43 43 43 42 42 41 41 41 42 43 44 44 45 45 46 46 47 47 47 48 49 50 51 51 52 52 53 53 54 55 54 55 56 55 52 50 49 49 48 46 45 45
44 44 43 43 42 42 41 41 42 41 41 42 42 42 42 43 43 43 44 44 45 47 48 50 51 52 52 53 54 55 56 56 56 57 57 55 52 51 49 50 48 46 44
45 44 44 43 42 42 42 41 41 41 41 41 41 41 41 40 39 39 40 40 41 43 45 47 49 51 52 52 54 55 57 58 57 56 57 57 55 54 50 50 49 49 47
45 45 44 43 42 42 41 40 40 40 40 40 39 39 38 37 36 35 35 35 35 37 39 42 45 48 51 52 53 55 56 58 58 57 56 56 56 56 53 49 48 49 49
45 45 44 43 42 41 40 39 39 39 39 38 37 37 35 34 32 31 30 29 30 32 34 37 41 44 45 49 51 53 54 56 57 57 57 56 56 56 54 52 50 48 47
45 44 43 42 41 40 39 39 39 38 37 36 36 35 33 31 29 27 26 25 26 28 30 33 37 40 42 44 47 50 52 54 55 56 56 55 55 56 54 52 50 49 48
45 44 43 42 41 40 39 39 38 37 36 35 34 32 30 28 25 23 22 21 22 24 26 29 32 36 38 42 44 45 47 51 53 54 54 54 54 54 53 52 50 49 47
46 44 43 42 41 40 39 38 37 36 35 34 32 30 27 25 22 20 19 18 19 21 23 26 30 33 36 39 41 42 44 46 49 51 52 52 52 52 51 51 50 49 47
45 44 43 41 40 40 39 37 36 34 34 32 30 27 25 23 20 17 16 15 16 18 20 23 27 31 35 37 39 40 41 42 44 47 48 49 50 50 49 49 49 49 50
45 44 42 40 40 40 37 36 34 33 32 30 28 26 24 22 18 15 13 11 12 14 16 20 24 28 31 34 36 37 38 39 40 42 44 46 47 48 48 48 48 49 49
45 43 41 40 40 38 37 35 33 32 30 29 26 25 22 20 17 12 8 6 7 10 14 18 22 25 28 31 34 35 37 37 37 39 40 42 43 44 45 46 47 48 49
44 42 40 39 39 38 36 34 32 31 29 27 25 23 21 19 16 12 7 2 4 8 13 18 21 23 25 28 32 35 35 35 36 37 38 40 42 43 43 44 45 46 47
43 41 39 38 38 36 35 33 31 29 28 25 24 22 19 17 15 11 7 2 3 7 12 16 20 22 23 26 29 32 34 34 35 35 36 38 40 41 42 43 44 45 46
42 41 38 37 37 35 34 32 30 28 26 24 22 20 17 15 13 10 7 4 5 7 11 15 18 21 22 25 26 29 31 32 33 33 35 36 37 38 40 42 43 44 45
41 39 37 36 35 34 32 31 30 27 25 23 21 19 16 13 11 8 6 4 5 7 9 13 16 18 21 22 24 25 28 30 30 31 33 34 35 36 38 40 42 44 44
39 37 35 35 34 32 31 30 28 27 24 22 19 17 15 13 10 8 5 3 4 6 8 11 13 16 19 20 22 23 25 26 28 29 31 32 33 35 37 39 40 42 42
37 35 34 33 31 29 29 28 27 25 23 21 19 17 15 12 10 8 6 4 3 5 7 9 11 13 16 18 20 22 23 24 26 27 29 30 31 33 36 38 39 41 42
35 33 31 30 28 27 26 26 25 24 23 21 19 16 15 13 11 9 7 4 2 3 6 8 10 12 14 16 18 20 22 23 24 25 27 28 29 31 34 36 38 40 42
33 30 29 27 25 24 24 23 23 22 21 21 19 17 15 14 12 10 8 5 3 3 5 7 8 10 12 15 17 18 20 21 22 24 26 27 28 29 31 34 37 38 41
30 28 27 25 22 21 21 21 21 20 20 19 19 17 16 14 13 12 10 8 6 5 5 6 7 8 10 13 15 18 19 20 20 22 24 26 27 28 29 30 32 36 39
28 25 24 22 20 18 18 18 18 19 18 17 17 17 16 16 15 14 13 11 9 8 7 6 6 7 8 10 13 15 17 18 19 20 22 24 26 27 28 29 31 33 35
25 23 21 20 17 16 15 15 15 16 16 15 15 15 15 15 15 15 15 15 14 13 12 11 11 11 12 12 13 14 15 17 19 19 21 23 24 26 26 27 29 32 33

GEFSGL_500_meanwind_072.txt.gz
Wind_Speed
34 34 35 36 36 37 38 38 38 38 39 39 39 39 39 38 38 39 39 39 40 41 42 43 43 43 43 43 42 43 44 43 42 41 41 41 41 42 42 41 41 43 43
35 36 37 38 39 39 40 40 40 40 40 40 39 39 39 39 39 39 39 40 40 41 42 43 44 45 45 45 45 44 45 46 44 44 43 43 43 44 43 42 42 43 43
37 38 39 40 40 41 41 41 41 41 40 40 40 39 39 38 39 39 40 40 41 41 42 43 44 45 46 46 47 47 47 48 47 47 46 45 45 45 45 43 44 44 44
39 40 41 41 42 42 42 42 42 41 41 40 40 39 38 39 39 40 40 40 41 41 42 43 44 46 47 47 48 48 49 49 49 49 50 48 48 47 47 45 45 46 45
41 41 42 43 43 44 44 44 43 42 41 40 39 39 39 39 39 40 40 40 40 40 41 42 44 45 47 48 48 49 51 51 51 51 51 51 50 49 49 47 46 47 47
42 43 44 44 44 45 45 44 43 42 41 40 39 39 39 39 39 39 40 39 40 40 41 41 43 44 46 48 49 50 52 52 53 53 53 52 53 51 50 50 49 48 47
43 44 45 45 45 46 45 44 43 42 41 41 40 39 39 39 39 39 39 38 38 38 39 39 40 42 44 46 48 50 52 52 53 55 56 55 55 54 52 52 51 50 49
45 46 46 46 46 46 45 44 43 42 41 40 39 39 38 38 38 38 37 36 35 35 36 36 37 39 41 44 46 49 51 53 53 55 57 57 57 56 56 53 52 53 53
46 47 47 47 47 46 45 44 43 42 41 40 39 39 38 37 36 36 35 33 33 33 33 34 35 36 39 42 45 47 50 52 53 55 58 59 59 58 57 56 54 54 55
47 47 47 47 47 46 45 44 42 42 41 40 39 38 36 35 35 34 33 31 30 30 31 32 33 34 37 40 42 44 47 50 53 54 57 59 59 59 58 57 57 54 54
48 48 48 47 47 47 45 43 42 42 41 39 38 36 35 33 32 31 30 28 27 27 28 29 30 31 33 36 39 41 44 48 51 54 55 58 58 58 58 58 59 57 54
48 48 48 48 47 46 44 43 42 41 39 38 36 35 33 32 30 29 27 27 26 25 25 25 25 26 28 31 34 37 42 45 48 52 54 55 56 56 56 57 58 59 56
49 49 49 48 47 45 44 42 41 40 38 37 35 33 31 30 29 27 27 26 24 22 20 20 20 21 23 27 31 34 37 41 44 48 51 52 53 53 53 55 56 56 56
49 48 48 47 45 44 42 41 40 38 37 35 33 31 30 28 27 26 26 25 21 17 14 13 14 16 19 23 27 31 33 37 41 44 47 49 50 50 51 52 52 52 53
48 47 47 45 43 42 41 40 39 38 37 34 31 30 28 26 25 25 24 22 18 13 9 9 10 12 15 18 22 26 30 33 36 40 43 46 46 46 47 49 49 48 50
47 46 45 44 42 40 39 39 38 37 36 32 30 28 27 25 23 23 22 20 16 11 7 4 6 8 11 15 19 22 27 29 32 35 39 41 42 41 43 45 46 46 46
47 45 44 42 41 39 37 36 36 35 34 32 29 27 25 23 22 21 20 18 14 10 5 2 3 6 9 13 16 21 24 27 29 33 35 38 39 39 40 42 44 44 45
46 44 43 41 39 38 36 35 34 34 32 30 28 26 24 22 21 19 17 15 12 8 5 1 2 6 8 11 15 19 23 25 27 29 32 35 36 37 38 39 41 43 44
44 43 41 39 38 36 34 33 33 32 31 29 27 25 24 21 19 18 16 14 11 8 4 1 2 5 8 11 14 18 21 23 24 26 29 31 33 34 36 38 39 41 42
43 41 39 37 36 34 33 31 31 30 29 27 25 24 23 21 18 17 15 12 10 7 4 1 2 4 7 11 13 16 18 21 22 24 26 27 30 32 34 35 37 40 41
41 39 37 35 34 32 31 29 28 28 26 26 24 23 22 20 18 17 14 12 9 7 5 1 3 5 7 9 12 14 17 19 21 23 24 26 28 30 32 33 36 39 39
39 37 35 33 31 30 29 27 26 25 24 24 23 22 21 19 18 16 14 12 9 7 5 1 2 5 6 9 11 13 15 17 19 21 23 24 26 28 29 30 33 35 37
37 35 33 31 29 27 26 25 24 23 22 22 21 21 20 19 17 15 13 11 9 7 5 2 2 4 7 9 11 12 14 17 18 20 21 22 24 26 28 29 31 32 32
34 32 30 28 26 25 23 22 21 20 20 19 19 19 19 19 18 15 13 11 9 7 5 4 2 3 7 9 11 13 14 16 17 18 20 21 23 25 26 28 30 31 31
31 29 27 25 24 22 21 19 18 18 18 17 17 18 18 17 17 15 13 12 10 8 5 4 3 3 6 8 10 12 13 14 15 16 18 20 22 24 25 26 28 29 30
29 27 25 23 21 20 18 17 16 15 14 15 15 15 16 16 15 14 12 11 11 9 8 6 4 3 5 7 8 10 11 13 14 14 16 18 20 22 24 25 26 27 29

GEFSGL_500_meanwind_078.txt.gz
Wind_Speed
24 25 26 28 29 30 31 33 34 35 36 36 37 37 38 38 38 38 38 39 39 39 40 40 40 41 42 42 43 43 43 43 43 44 45 45 45 44 42 43 43 41 41
25 27 28 30 32 33 35 36 37 38 38 39 39 39 38 38 38 38 39 38 38 38 39 39 40 41 41 42 43 44 44 44 44 45 45 45 45 45 43 43 44 44 43
27 29 31 33 34 36 37 38 39 40 40 40 40 39 39 39 39 39 38 38 38 38 39 39 40 40 41 42 43 44 45 45 45 46 46 46 46 46 44 44 44 44 45
29 32 34 35 37 38 39 40 41 42 42 41 41 40 39 39 39 39 38 38 38 38 38 39 40 41 41 42 43 44 45 46 46 47 47 47 47 47 46 45 44 43 44
31 34 36 37 39 41 41 42 43 43 42 42 41 40 39 39 38 38 37 37 36 36 37 38 39 41 42 43 44 45 45 46 47 48 48 48 48 48 48 46 45 44 43
34 36 38 40 41 42 43 43 43 43 43 42 41 40 39 38 38 37 36 35 35 35 35 36 37 38 40 42 43 45 47 47 48 49 50 50 50 49 50 49 47 46 45
36 38 40 42 43 44 44 44 44 43 42 41 40 38 37 37 37 36 35 34 34 34 34 35 36 36 38 40 42 43 44 46 48 49 50 51 51 51 51 50 51 48 47
37 39 41 43 44 44 45 44 44 43 41 40 39 37 36 36 35 34 34 33 33 33 34 34 35 36 37 38 39 41 42 44 47 49 50 51 51 52 53 51 51 50 49
39 41 43 44 45 45 45 44 44 42 40 39 38 37 36 35 34 33 33 32 32 32 33 33 34 35 36 37 38 38 39 41 44 47 49 51 52 52 54 53 53 52 49
41 43 44 45 46 46 45 45 43 41 40 38 37 36 35 34 34 33 32 31 31 30 30 31 31 32 34 34 35 37 37 39 42 45 47 50 52 53 54 55 53 52 51
43 45 46 46 47 46 46 44 43 41 39 37 37 36 34 33 32 31 29 28 28 28 27 28 29 29 30 31 33 35 36 38 40 42 45 47 50 53 54 55 54 52 52
45 46 47 47 47 47 46 44 42 40 38 37 36 34 33 32 31 29 28 27 27 27 26 26 27 27 28 29 30 33 35 37 39 41 43 45 48 51 53 54 54 53 51
46 47 48 48 47 47 46 43 41 40 38 37 35 33 33 31 30 28 27 26 26 25 25 25 24 24 24 25 28 31 34 36 38 40 42 44 46 49 50 52 54 55 52
47 48 49 48 48 46 45 43 41 39 37 35 34 32 31 31 30 28 27 26 25 24 23 22 20 19 19 21 23 26 29 33 36 39 41 43 45 47 49 50 51 54 53
48 50 50 49 47 45 43 42 40 38 36 34 33 32 31 30 29 27 26 24 23 23 22 19 17 16 15 15 17 20 23 28 32 35 39 42 44 46 47 49 49 50 53
50 51 50 49 47 44 42 41 39 37 36 34 32 31 30 29 28 26 25 24 22 21 19 16 14 12 10 10 12 15 19 22 27 31 35 39 42 44 46 46 47 47 50
50 50 50 48 46 44 42 39 37 36 34 33 31 31 30 29 27 25 24 23 21 19 17 14 12 9 8 8 9 12 15 19 23 29 32 35 38 41 43 44 44 45 46
50 50 48 47 45 43 41 38 36 34 32 31 30 30 30 28 27 25 24 22 20 18 16 13 10 8 7 7 7 9 12 16 20 25 30 32 35 37 40 42 42 42 43
50 49 47 46 43 41 39 36 34 32 30 30 29 29 28 27 26 25 23 21 19 17 15 12 9 7 6 6 6 8 11 15 19 23 27 29 32 34 35 38 40 41 42
49 47 46 44 42 39 37 34 31 30 28 28 28 28 27 26 25 23 21 19 17 16 13 11 8 6 5 5 6 8 11 14 19 22 25 28 29 31 33 35 37 38 39
48 46 45 42 39 37 34 31 29 27 26 26 26 26 26 25 23 21 19 17 16 15 12 9 7 5 4 4 5 8 10 13 17 21 24 26 29 31 33 33 35 36 38
47 45 43 40 37 34 32 29 27 25 24 24 24 24 24 23 21 19 18 16 14 13 11 8 6 4 3 4 5 8 11 14 16 18 22 24 27 30 32 32 33 34 35
44 43 40 37 34 32 29 26 24 23 23 22 21 22 22 21 19 17 16 15 13 12 10 8 5 3 2 4 6 8 11 14 16 18 20 22 24 27 29 30 32 33 33
43 40 38 34 32 29 27 24 22 21 20 19 19 20 20 20 18 16 15 13 12 10 8 6 4 2 2 4 7 9 11 13 15 17 19 21 22 25 27 28 30 32 32
41 38 35 32 29 26 24 22 20 19 18 17 17 17 17 17 16 15 13 12 10 9 8 6 3 1 1 4 7 9 11 13 15 16 18 20 21 23 24 27 29 30 31
38 35 32 29 26 23 21 20 19 17 16 15 15 15 15 15 14 13 12 10 9 8 7 6 3 0 2 4 7 8 10 13 15 15 17 18 20 22 23 25 27 28 30

GEFSGL_500_meanwind_084.txt.gz
Wind_Speed
21 22 24 25 27 28 30 31 32 33 34 35 36 37 37 38 38 38 38 39 39 39 39 39 40 40 40 41 41 41 41 41 41 40 42 42 42 42 42 42 41 41 41
21 23 24 26 28 30 32 33 34 35 36 37 37 38 38 39 38 38 38 37 37 37 37 38 38 39 40 41 41 41 41 41 41 41 41 42 41 41 42 42 42 42 41
23 24 26 28 30 32 34 35 37 38 38 38 39 39 39 39 38 38 37 36 35 35 35 36 36 37 38 39 40 41 41 41 41 41 41 41 42 42 41 42 42 43 42
24 25 27 30 32 34 36 37 38 39 39 40 40 40 40 39 38 37 36 35 34 34 34 35 35 36 36 37 38 39 40 40 40 41 41 41 41 42 42 41 42 43 43
25 27 29 32 34 36 37 38 39 40 41 41 41 40 40 39 38 36 36 35 34 34 34 34 34 34 34 35 37 38 39 39 40 40 40 41 41 41 42 42 41 42 43
27 28 31 33 36 38 39 40 41 42 42 42 42 41 40 40 38 37 35 35 34 33 33 33 33 33 33 34 35 36 38 38 39 40 40 41 41 41 42 42 41 41 42
28 30 33 35 37 39 40 42 42 43 43 43 42 41 40 39 38 37 36 35 34 33 33 33 33 33 32 33 33 35 36 38 39 40 40 40 41 41 42 42 42 42 42
30 32 34 36 38 40 42 43 44 44 44 43 42 41 39 38 37 37 36 34 33 32 32 32 32 32 32 33 33 34 35 37 39 40 40 41 42 42 42 42 43 42 42
32 35 36 38 40 42 44 44 45 44 44 43 42 40 39 38 38 37 35 33 31 31 32 32 31 31 32 33 33 34 35 37 38 39 39 40 41 42 42 42 43 43 42
34 36 37 39 41 44 45 45 45 45 45 43 42 40 39 39 38 36 34 32 31 31 32 31 31 31 31 31 31 32 32 34 35 36 37 38 40 41 42 42 42 43 43
37 38 39 42 44 45 45 45 46 45 45 44 42 41 39 38 37 36 34 32 31 31 31 31 31 30 30 29 29 30 30 31 32 34 35 36 38 39 41 42 42 43 43
39 40 42 43 45 46 47 47 46 46 45 44 42 40 39 37 36 35 33 32 31 31 31 30 30 30 29 28 28 28 29 29 30 31 33 34 35 37 38 40 42 43 44
42 42 44 45 46 47 47 47 46 46 45 44 42 40 39 37 36 34 32 32 32 31 30 30 29 28 27 27 27 27 27 27 28 29 30 31 32 34 37 38 40 42 44
44 45 46 46 47 47 48 48 47 46 45 44 41 40 38 36 35 34 32 32 31 30 29 29 28 27 27 26 26 25 25 24 26 27 28 29 31 33 34 37 38 40 43
45 46 47 48 48 48 48 48 47 46 45 43 41 39 38 36 34 33 32 32 31 30 29 28 27 26 25 24 23 22 22 22 22 24 26 27 29 31 32 34 37 38 41
47 49 49 49 49 49 49 49 47 46 44 42 40 39 37 35 33 32 31 31 30 29 29 27 26 25 23 22 20 20 19 19 20 21 22 25 27 30 32 33 35 37 38
48 49 49 49 49 49 49 48 47 45 43 41 39 37 35 33 32 31 30 29 29 29 28 26 24 23 22 20 18 17 16 17 17 18 20 23 26 28 30 32 34 35 37
50 50 51 50 49 49 49 48 47 45 42 40 37 35 33 32 31 30 29 29 28 28 27 25 23 21 19 18 17 15 15 15 15 16 18 20 23 26 28 30 33 34 36
52 52 52 51 50 50 49 48 46 43 41 38 36 34 32 30 30 29 28 28 27 27 25 24 22 20 19 17 16 15 14 13 13 15 16 18 21 23 26 29 32 34 35
53 52 52 51 51 50 49 47 45 42 40 37 34 32 30 29 28 28 27 27 26 25 24 23 21 19 17 16 14 13 12 11 12 13 14 16 19 21 24 28 30 32 34
53 53 53 52 51 49 47 45 43 41 38 35 32 30 29 28 27 26 26 25 25 23 22 22 20 18 16 14 13 12 11 11 10 11 13 15 16 19 23 26 28 31 32
54 53 52 51 49 47 45 43 41 38 35 33 30 28 27 26 26 25 25 25 24 22 21 20 18 16 14 13 12 11 11 10 10 10 11 12 14 17 21 25 27 30 31
53 52 50 49 47 45 44 41 38 36 33 31 28 26 25 25 24 24 24 24 22 21 19 18 17 15 13 12 11 10 9 9 9 9 9 11 13 16 20 22 25 27 29
52 51 49 48 45 43 41 38 35 33 30 28 26 25 24 24 23 23 22 22 21 19 18 17 15 13 12 10 9 8 7 7 7 8 9 10 12 15 18 21 23 25 26
50 49 47 45 43 41 38 34 31 30 28 26 24 24 23 22 21 21 21 20 18 17 16 15 14 12 10 9 8 7 6 5 6 8 10 11 13 15 17 20 22 24 24
49 47 45 42 40 38 34 32 30 28 26 25 23 22 21 20 19 18 18 18 16 16 15 14 13 11 10 9 8 7 6 5 6 8 10 11 13 15 17 19 21 23 24